Location: Unspecified
(48.8656°N, 0.0000°E)
Time: 05:34:55
(UTC+00:00)

Vanguard 2 Rocket - Visible Passes

Search period start: 20 June 2019 00:00
Search period end: 30 June 2019 00:00
Orbit: 554 x 3326 km, 32.9° (Epoch: 19 June)

Date Brightness Start Highest point End Pass type
(mag) Time Alt. Az. Time Alt. Az. Time Alt. Az.
20 Jun 9.5 01:40:05 10° WSW 01:53:09 41° S 02:10:48 10° SE visible
20 Jun 9.0 22:28:58 10° SW 22:37:53 35° SSE 22:51:42 10° ESE visible
21 Jun 9.3 00:40:32 10° WSW 00:52:13 42° S 01:09:18 10° ESE visible
21 Jun 9.9 02:54:25 10° WSW 03:07:38 33° SSW 03:23:56 10° SSE visible
21 Jun 9.0 21:30:49 10° SSW 21:38:09 27° SSE 21:49:12 10° ESE visible
21 Jun 9.1 23:41:23 10° WSW 23:51:37 40° S 00:07:24 10° ESE visible
22 Jun 9.6 01:54:16 10° WSW 02:06:40 36° SSW 02:23:21 10° SE visible
22 Jun 8.9 22:42:37 10° SW 22:51:23 37° SSE 23:05:16 10° ESE visible
23 Jun 9.3 00:54:37 10° WSW 01:05:50 38° S 01:22:09 10° SE visible
23 Jun 10.0 03:09:11 10° WSW 03:20:58 26° SSW 03:35:21 10° SSE visible
23 Jun 8.8 21:44:13 10° SW 21:51:34 31° SSE 22:03:02 10° ESE visible
23 Jun 9.1 23:55:22 10° WSW 00:05:16 38° S 00:20:31 10° ESE visible
24 Jun 9.7 02:08:44 10° WSW 02:20:11 30° SSW 02:35:19 10° SSE visible
24 Jun 8.8 20:46:16 10° SSW 20:52:09 23° SSE 21:00:44 10° ESE visible
24 Jun 8.9 22:56:28 10° WSW 23:05:02 36° S 23:18:36 10° ESE visible
25 Jun 9.4 01:08:55 10° WSW 01:19:28 33° SSW 01:34:34 10° SE visible
25 Jun 8.7 21:57:54 10° SW 22:05:09 32° SSE 22:16:37 10° ESE visible
26 Jun 9.1 00:09:32 10° WSW 00:18:58 34° S 00:33:17 10° SE visible
26 Jun 9.8 02:23:43 10° WSW 02:33:41 23° SSW 02:46:26 10° SSE visible
26 Jun 8.7 20:59:42 10° SSW 21:05:38 26° SSE 21:14:38 10° ESE visible
26 Jun 8.9 23:10:32 10° WSW 23:18:45 34° S 23:31:41 10° SE visible
27 Jun 9.5 01:23:33 10° WSW 01:33:07 26° SSW 01:46:21 10° SSE visible
27 Jun 8.7 22:11:50 10° SW 22:18:52 32° S 22:29:58 10° ESE visible
28 Jun 9.3 00:23:58 10° WSW 00:32:43 29° SSW 00:45:34 10° SE visible
28 Jun 10.0 02:39:52 10° WSW 02:47:13 16° SSW 02:56:01 10° S visible
28 Jun 8.6 21:13:26 10° SW 21:19:18 27° SSE 21:28:16 10° ESE visible
28 Jun 9.0 23:24:48 10° WSW 23:32:33 30° S 23:44:24 10° SE visible
29 Jun 9.7 01:38:51 10° WSW 01:46:48 19° SSW 01:57:06 10° S visible
29 Jun 8.8 22:25:58 10° WSW 22:32:40 29° S 22:42:49 10° SE visible
